Regional Weather Roundup
Issued by NWS Goodland, KS

Home | Current Version | Previous Version | Graphics & Text | Print | Product List | Glossary On
Versions: 1 2 3 4 5 6 7 8 9 10 11 12 13 14 15 16 17 18 19 20 21 22 23 24 25 26 27 28 29 30 31 32 33 34 35 36 37 38 39 40 41 42 43 44 45 46 47 48 49 50
000
ASUS43 KGLD 212308
RWRGLD

GOODLAND FORECAST AREA HOURLY WEATHER ROUNDUP
NATIONAL WEATHER SERVICE GOODLAND KS
500 PM MDT THU AUG 21 2014

...OFFICIAL OBSERVATIONS...

CITY           SKY/WX    TMP DP  RH WIND       PRES   REMARKS
GOODLAND KS    SUNNY     93  47  20 VRB5      29.97S
HILL CITY KS   SUNNY     98  62  30 N9        29.84F
IMPERIAL NEB   SUNNY     91  52  26 NE7       29.95S
MCCOOK NEB     MOSUNNY   95  55  26 NW8       29.89S
AKRON CO       MOSUNNY   85  43  22 SW5       30.04F
BURLINGTON CO  SUNNY     91  46  21 NE8       30.00F
LIMON CO       MOSUNNY   84  46  26 E10       30.08F
$$

...UNOFFICIAL OBSERVATIONS...

CITY           SKY/WX    TMP DP  RH WIND       PRES   REMARKS
COLBY KS       SUNNY     91  61  35 N5        29.94S
LENORA KS        N/A     94  32  11 CALM        N/A
NORTON KS      SUNNY     95  54  24 NE8       29.86S
SHARON SPRINGS   N/A     94  58  29 NE8G15      N/A
WAKEENEY KS      N/A     99  54  21 MISG        N/A
KIT CARSON CO    N/A     91  50  24 MISG        N/A
YUMA CO          N/A     89  45  21 CALM        N/A
$$



USA.gov is the U.S. government's official web portal to all federal, state and local government web resources and services.